CW7400 Weather Reports


time (UTC)temp
C
wind
direction
speed
KPH
gust
KPH
rain 1hr
cm
rain 24hr
cm
rain mn
cm
humidity
%
barometer
mb
20260510162707 30 0 0.0 3.2 0.00 0.00 0.00 40 1015.4
20260510161807 28 0 0.0 12.9 0.00 0.00 0.00 39 1015.4
20260510160927 28 0 0.0 6.4 0.00 0.00 0.00 41 1015.5
20260510160006 27 67 4.8 12.9 0.00 0.00 0.00 43 1015.6
20260510155406 27 0 0.0 12.9 0.00 0.00 0.00 42 1015.7
20260510154507 28 0 0.0 6.4 0.00 0.00 0.00 45 1015.8
20260510153606 28 0 0.0 0.0 0.00 0.00 0.00 44 1016.0
20260510152706 28 0 0.0 3.2 0.00 0.00 0.00 47 1016.0
20260510151806 27 0 0.0 3.2 0.00 0.00 0.00 47 1016.0
20260510150906 27 0 0.0 3.2 0.00 0.00 0.00 52 1015.8
20260510150028 26 238 4.8 9.7 0.00 0.00 0.00 53 1015.8
20260510145407 26 0 0.0 9.7 0.00 0.00 0.00 55 1015.7
20260510144506 26 0 0.0 6.4 0.00 0.00 0.00 56 1015.8
20260510143627 25 0 0.0 3.2 0.00 0.00 0.00 59 1015.8
20260510142706 25 0 0.0 6.4 0.00 0.00 0.00 59 1015.8
20260510141806 25 0 0.0 6.4 0.00 0.00 0.00 61 1015.8
20260510140906 25 0 0.0 3.2 0.00 0.00 0.00 63 1015.8
20260510140006 24 0 0.0 6.4 0.00 0.00 0.00 65 1015.8
20260510135406 23 0 0.0 6.4 0.00 0.00 0.00 63 1015.9
20260510134506 23 0 0.0 3.2 0.00 0.00 0.00 65 1015.9
20260510133627 23 0 0.0 3.2 0.00 0.00 0.00 68 1015.8
20260510132706 22 0 0.0 3.2 0.00 0.00 0.00 71 1015.6
20260510131806 22 0 0.0 6.4 0.00 0.00 0.00 75 1015.8
20260510130927 22 0 0.0 3.2 0.00 0.00 0.00 76 1015.7
20260510130006 21 0 0.0 3.2 0.00 0.00 0.00 81 1015.5
20260510125406 20 0 0.0 3.2 0.00 0.00 0.00 82 1015.4
20260510124506 20 0 0.0 0.0 0.00 0.00 0.00 86 1015.3
20260510123627 19 0 0.0 0.0 0.00 0.00 0.00 88 1015.3
20260510122706 18 0 0.0 0.0 0.00 0.00 0.00 94 1015.2
20260510121827 17 0 0.0 0.0 0.00 0.00 0.00 95 1015.2
20260510120906 16 0 0.0 0.0 0.00 0.00 0.00 95 1015.0
20260510120028 16 0 0.0 0.0 0.00 0.00 0.00 95 1015.1
20260510115406 16 0 0.0 0.0 0.00 0.00 0.00 95 1014.9
20260510114506 16 0 0.0 0.0 0.00 0.00 0.00 95 1014.8
20260510113627 16 0 0.0 0.0 0.00 0.00 0.00 95 1014.7
20260510112706 16 0 0.0 0.0 0.00 0.00 0.00 95 1014.5
20260510111806 15 0 0.0 0.0 0.00 0.00 0.00 95 1014.4
20260510110906 15 0 0.0 0.0 0.00 0.00 0.00 95 1014.3
20260510110006 15 0 0.0 0.0 0.00 0.00 0.00 95 1014.2
20260510105406 15 0 0.0 0.0 0.00 0.00 0.00 95 1014.1
20260510104506 15 0 0.0 0.0 0.00 0.00 0.00 95 1013.9
20260510103606 15 0 0.0 0.0 0.00 0.00 0.00 95 1014.0
20260510102706 15 0 0.0 0.0 0.00 0.00 0.00 95 1013.8
20260510101806 15 0 0.0 0.0 0.00 0.00 0.00 94 1013.6
20260510100906 15 0 0.0 0.0 0.00 0.00 0.00 94 1013.4
20260510100006 15 0 0.0 0.0 0.00 0.00 0.00 94 1013.2
20260510095406 15 0 0.0 0.0 0.00 0.00 0.00 94 1013.2
20260510094506 15 0 0.0 0.0 0.00 0.00 0.00 94 1013.0
20260510093606 15 0 0.0 0.0 0.00 0.00 0.00 94 1012.9
20260510092706 15 0 0.0 0.0 0.00 0.00 0.00 94 1012.8
20260510091806 15 0 0.0 0.0 0.00 0.00 0.00 94 1012.9
20260510090906 15 0 0.0 0.0 0.00 0.00 0.00 94 1012.8
20260510090006 15 0 0.0 0.0 0.00 0.00 0.00 94 1012.6
20260510085427 15 0 0.0 0.0 0.00 0.00 0.00 94 1012.6
20260510084506 15 0 0.0 0.0 0.00 0.00 0.00 94 1012.6
20260510083606 15 0 0.0 0.0 0.00 0.00 0.00 94 1012.5
20260510082706 15 0 0.0 0.0 0.00 0.00 0.00 94 1012.4
20260510081806 15 0 0.0 0.0 0.00 0.00 0.00 94 1012.3
20260510080927 15 0 0.0 0.0 0.00 0.00 0.00 94 1012.4
20260510080027 15 0 0.0 0.0 0.00 0.00 0.00 94 1012.3
20260510075406 15 0 0.0 0.0 0.00 0.00 0.00 94 1012.3
20260510074527 15 0 0.0 0.0 0.00 0.00 0.00 94 1012.3
20260510073606 15 0 0.0 0.0 0.00 0.00 0.00 94 1012.3
20260510072706 15 0 0.0 0.0 0.00 0.00 0.00 94 1012.0
20260510071806 15 0 0.0 0.0 0.00 0.00 0.00 94 1012.0
20260510070927 15 0 0.0 0.0 0.00 0.00 0.00 94 1012.0
20260510070006 15 0 0.0 0.0 0.00 0.00 0.00 94 1012.1
20260510065427 15 0 0.0 0.0 0.00 0.00 0.00 94 1012.2
20260510064506 15 0 0.0 0.0 0.00 0.00 0.00 94 1012.3
20260510063606 15 0 0.0 0.0 0.00 0.00 0.00 93 1012.3
20260510062727 15 0 0.0 0.0 0.00 0.00 0.00 93 1012.2
20260510061806 15 0 0.0 0.0 0.00 0.00 0.00 93 1012.0
20260510060906 15 0 0.0 0.0 0.00 0.00 0.00 93 1012.0
20260510060006 15 0 0.0 0.0 0.00 0.00 0.00 93 1012.2
20260510055406 15 0 0.0 0.0 0.00 0.00 0.00 93 1012.2
20260510054527 15 0 0.0 0.0 0.00 0.00 0.00 93 1012.2
20260510053606 16 0 0.0 0.0 0.00 0.00 0.00 93 1012.4
20260510052706 16 0 0.0 0.0 0.00 0.00 0.00 93 1012.5
20260510051806 16 0 0.0 0.0 0.00 0.00 0.00 93 1012.6
20260510050906 16 0 0.0 0.0 0.00 0.00 0.00 93 1012.7
20260510050006 16 0 0.0 0.0 0.00 0.00 0.00 93 1012.6
20260510045406 16 0 0.0 0.0 0.00 0.00 0.00 93 1012.6
20260510044506 16 0 0.0 0.0 0.00 0.00 0.00 92 1012.7
20260510043627 16 0 0.0 0.0 0.00 0.00 0.00 92 1012.8
20260510042727 16 0 0.0 0.0 0.00 0.00 0.00 92 1012.7
20260510041806 16 0 0.0 0.0 0.00 0.00 0.00 92 1012.7
20260510040906 16 0 0.0 0.0 0.00 0.00 0.00 91 1012.7
20260510040006 16 0 0.0 0.0 0.00 0.00 0.00 91 1012.7
20260510035406 16 0 0.0 0.0 0.00 0.00 0.00 91 1012.6
20260510034506 16 0 0.0 0.0 0.00 0.00 0.00 91 1012.6
20260510033606 16 0 0.0 0.0 0.00 0.00 0.00 91 1012.6
20260510032706 16 0 0.0 0.0 0.00 0.00 0.00 91 1012.6
20260510031827 16 0 0.0 0.0 0.00 0.00 0.00 91 1012.4
20260510030927 16 0 0.0 0.0 0.00 0.00 0.00 90 1012.4
20260510030006 16 0 0.0 0.0 0.00 0.00 0.00 90 1012.4
20260510025406 16 0 0.0 0.0 0.00 0.00 0.00 90 1012.3
20260510024506 16 0 0.0 0.0 0.00 0.00 0.00 90 1012.4
20260510023606 16 0 0.0 0.0 0.00 0.00 0.00 90 1012.3
20260510022706 16 0 0.0 0.0 0.00 0.00 0.00 90 1012.2
20260510021806 16 0 0.0 0.0 0.00 0.00 0.00 90 1012.1
20260510020906 17 0 0.0 0.0 0.00 0.00 0.00 89 1012.1
20260510020006 17 0 0.0 0.0 0.00 0.00 0.00 89 1012.0
20260510015406 17 0 0.0 0.0 0.00 0.00 0.00 88 1012.0
20260510014506 17 0 0.0 0.0 0.00 0.00 0.00 87 1012.0
20260510013606 17 0 0.0 0.0 0.00 0.00 0.00 88 1011.6
20260510012706 17 0 0.0 0.0 0.00 0.00 0.00 87 1011.5
20260510011806 17 0 0.0 0.0 0.00 0.00 0.00 86 1011.4
20260510010906 18 0 0.0 0.0 0.00 0.00 0.00 86 1011.3
20260510010006 18 0 0.0 0.0 0.00 0.00 0.00 85 1011.2
20260510005406 18 0 0.0 0.0 0.00 0.00 0.00 85 1011.2
20260510004506 18 0 0.0 0.0 0.00 0.00 0.00 84 1011.1
20260510003606 19 0 0.0 0.0 0.00 0.00 0.00 83 1011.1
20260510002706 19 0 0.0 0.0 0.00 0.00 0.00 83 1011.0
20260510001806 20 0 0.0 0.0 0.00 0.00 0.00 82 1011.0
20260510000927 20 0 0.0 0.0 0.00 0.00 0.00 81 1011.0
20260510000006 20 0 0.0 0.0 0.00 0.00 0.00 80 1010.8
20260509235406 21 0 0.0 0.0 0.00 0.00 0.00 79 1010.8
20260509234527 21 0 0.0 0.0 0.00 0.00 0.00 77 1010.8
20260509233627 21 0 0.0 3.2 0.00 0.00 0.00 77 1010.6
20260509232706 22 0 0.0 3.2 0.00 0.00 0.00 76 1010.4
20260509231806 22 0 0.0 0.0 0.00 0.00 0.00 75 1010.5
20260509230906 22 0 0.0 3.2 0.00 0.00 0.00 74 1010.3
20260509230006 22 0 0.0 6.4 0.00 0.00 0.00 74 1010.2
20260509225406 22 0 0.0 6.4 0.00 0.00 0.00 73 1010.2
20260509224506 22 0 0.0 3.2 0.00 0.00 0.00 72 1010.0
20260509223606 22 0 0.0 9.7 0.00 0.00 0.00 72 1010.1
20260509222706 23 0 0.0 0.0 0.00 0.00 0.00 72 1010.2
20260509221805 23 0 0.0 3.2 0.00 0.00 0.00 72 1010.2
20260509220906 23 0 0.0 3.2 0.00 0.00 0.00 71 1010.5
20260509220006 23 0 0.0 9.7 0.00 0.00 0.00 71 1010.3
20260509215406 23 0 0.0 9.7 0.00 0.00 0.00 71 1010.3
20260509214505 23 0 0.0 6.4 0.00 0.00 0.00 71 1010.3
20260509213606 22 0 0.0 9.7 0.00 0.00 0.00 71 1010.2
20260509212706 23 0 0.0 3.2 0.00 0.00 0.00 69 1010.2
20260509211806 23 0 0.0 6.4 0.00 0.00 0.00 71 1010.1
20260509210906 23 0 0.0 12.9 0.00 0.00 0.00 71 1010.0
20260509210026 23 0 0.0 3.2 0.00 0.00 0.00 71 1009.9
20260509205405 23 0 0.0 3.2 0.00 0.00 0.00 70 1010.1
20260509204527 22 0 0.0 6.4 0.00 0.00 0.00 72 1010.1
20260509203605 22 0 0.0 6.4 0.00 0.00 0.00 71 1010.1
20260509202705 22 0 0.0 6.4 0.00 0.00 0.00 72 1010.2
20260509201805 22 0 0.0 6.4 0.00 0.00 0.00 71 1010.2
20260509200906 22 0 0.0 6.4 0.00 0.00 0.00 72 1010.2
20260509200005 22 0 0.0 6.4 0.00 0.00 0.00 72 1010.3
20260509195405 22 0 0.0 3.2 0.00 0.00 0.00 71 1010.5
20260509194505 22 0 0.0 6.4 0.00 0.00 0.00 72 1010.5
20260509193606 22 0 0.0 9.7 0.00 0.00 0.00 71 1010.6
20260509192706 22 0 0.0 9.7 0.00 0.00 0.00 70 1010.7
20260509191805 22 0 0.0 16.1 0.00 0.00 0.00 70 1010.9
20260509190905 22 0 0.0 16.1 0.00 0.00 0.00 69 1010.8
20260509190006 23 0 0.0 9.7 0.00 0.00 0.00 67 1010.9
20260509185405 23 0 0.0 9.7 0.00 0.00 0.00 65 1010.8
20260509184505 24 244 4.8 9.7 0.00 0.00 0.00 63 1010.8
20260509183605 24 0 0.0 12.9 0.00 0.00 0.00 63 1010.7
20260509182705 24 0 0.0 9.7 0.00 0.00 0.00 62 1010.7
20260509181806 24 0 0.0 16.1 0.00 0.00 0.00 61 1010.9
20260509180906 24 0 0.0 6.4 0.00 0.00 0.00 62 1011.2
20260509180006 23 0 0.0 9.7 0.00 0.00 0.00 61 1011.4
20260509175405 23 0 0.0 16.1 0.00 0.00 0.00 60 1011.5
20260509174505 23 248 4.8 16.1 0.00 0.00 0.00 58 1011.6
20260509173605 24 0 0.0 6.4 0.00 0.00 0.00 58 1011.6
20260509172705 23 0 0.0 9.7 0.00 0.00 0.00 59 1011.6
20260509171805 23 231 4.8 12.9 0.00 0.00 0.00 57 1011.8
20260509170926 23 0 0.0 19.3 0.00 0.00 0.00 59 1012.0
20260509170005 23 248 4.8 19.3 0.00 0.00 0.00 58 1011.9
20260509165405 23 0 0.0 16.1 0.00 0.00 0.00 61 1012.1
20260509164505 23 0 0.0 19.3 0.00 0.00 0.00 60 1012.1